Location: Newark
(54.1978°N, 18.3264°E)
Time: 10:17:24
(UTC+00:00)

OTV 5 (USA 277) - Pass Details

Date: 03 September 2019
Orbit: 295 x 339 km, 54.5° (Epoch: 08 September)

Event Time Altitude Azimuth Distance (km) Brightness Sun altitude
Rises 18:46:53 0° 276° (W) 2,007 ? -10.8°
Reaches altitude 10° 18:48:50 10° 277° (W) 1,176 ? -11.0°
Maximum altitude 18:51:26 84° 4° (N) 306 ? -11.3°
Enters shadow 18:52:59 21° 93° (E) 746 ? -11.5°
